STARLINK-3682, 52140

Orbit data source: Space-Track

STARLINK-3682, 52140 is a payload satellite owned by SpaceX/Seattle (US) in LEO that was launched on Sat, 19 Mar 2022 UTC via an FALCON 9 launch vehicle from the Air Force Eastern Test Range (AFETR). Payload-class satellites include a variety of spacecraft equipped with specific instruments for various scientific and technological missions. These include communications satellites like Starlink; space stations such as the ISS; scientific satellites like the Hubble; Earth observation satellites from companies like Planet Labs, Umbra, and HawkEye 360; GPS; miniature CubeSats for education and research; and military/defense satellites.

Loading next visibility...
Identifier
52140, 2022-029BE
Orbit
LEO
Country
Flag of USUS
Related business
Manufacturer
SpaceX/Seattle
Mission
Operational Commercial Communications
Bus & Motor
STARLINK, Unknown motor
Mass
297 kg wet, ~275 kg dry
Launch date (UTC)
2022-03-19 (4 years ago)
Launch vehicle
FALCON 9
Launch site
Air Force Eastern Test Range (AFETR)
Object type
Payload
Rocket body
Debris
Shape & HBR
Box + 1 Pan, 10.1 m
Radar Cross Section
13.562 m², Large (>1 m²)

Expand to show TLE details & history
Last TLE update: 3 days ago

TLE from 3 days ago
0 STARLINK-3682
1 52140U 22029BE  26170.72531420  .00000148  00000-0  27395-4 0  9990
2 52140  53.1605 330.9509 0001154  81.1723 278.9399 15.08834508236343
Epoch: 2026-06-19T17:24Z
TLE epoch observation values (Epoch: 2026-06-19T17:24:27.146Z)
Latitude
-0.00005°
Longitude
161.88759°
Altitude
540.528 km
Speed
7.593 km/s
True Right ascension
22h 03m 48s
True Declination
0° 00' 00"
Sunlit
Object was in full shadow at epoch
Visualization orbit readout
Latitude
Unknown
Longitude
Unknown
Altitude
Unknown
Speed
Unknown
Apparent Right ascension
Unknown
Apparent Declination
Unknown
Sunlit
N/A
Visualization observer readout
Local Sidereal Time
21:26:29
Azimuth
Unknown
Elevation
Unknown
Doppler factor
Unknown
Orbital elements
Apogee altitude
540.813 km
Perigee altitude
539.216 km
Semi-major axis
6,918.151 km
Eccentricity
0.00012
Inclination
53.1605°
RAAN
330.9509°
Arg. of periapsis
81.1723°
True anomaly
278.92684°
Mean anomaly
278.9399°
Eccentric anomaly
278.93337°
Mean motion
3.77188 °/min
Orbital period
95.44 mins
BSTAR
0.000027395
Loading maneuver chart data...
Computing Atmospheric mass density...
Loading historical data...
Loading historical data...
Loading historical data...
Loading historical data...
Loading historical data...
Loading historical data...
Loading historical data...

Documentation

Showing up to 5 results
|